JBU2637 KJFK-MDST

Flight info

Callsign JBU2637
Flight time 3h 7m
Altitude 36000
Route SHIPP Y490 ROLLE/M079F360 DCT ATUGI/M079F350 L454 SAVON/M079F370 L454 LUCTI/N0459F370 L454 MNDEZ/N0454F360 DCT SEKAR SEKAR2P
Aircraft A21N/M-SDE2E3FGHIRWXY/LB1

Departure

Time 2026-05-07 12:59
Airport John F. Kennedy International Airport (KJFK)

Arrival

Time 2026-05-07 16:06
Airport Cibao International Airport (MDST)
Time Latitude Longitude Altitude Speed Heading
2026-05-07 12:34 40.64636 -73.77398 15 ft 0 kts 190°
2026-05-07 12:48 40.64639 -73.77397 15 ft 2 kts 190°
2026-05-07 12:49 40.64654 -73.77393 15 ft 2 kts 190°
2026-05-07 12:49 40.64669 -73.77390 15 ft 2 kts 192°
2026-05-07 12:49 40.64682 -73.77382 15 ft 2 kts 219°
2026-05-07 12:49 40.64692 -73.77367 15 ft 2 kts 239°
2026-05-07 12:50 40.64698 -73.77349 15 ft 2 kts 259°
2026-05-07 12:50 40.64699 -73.77329 15 ft 2 kts 279°
2026-05-07 12:50 40.64695 -73.77312 15 ft 0 kts 297°
2026-05-07 12:50 40.64692 -73.77306 15 ft 1 kts 300°
2026-05-07 12:51 40.64691 -73.77304 15 ft 0 kts 300°
2026-05-07 12:52 40.64692 -73.77306 15 ft 1 kts 300°
2026-05-07 12:52 40.64709 -73.77346 15 ft 6 kts 309°
2026-05-07 12:53 40.64760 -73.77351 15 ft 8 kts 45°
2026-05-07 12:53 40.64759 -73.77268 15 ft 10 kts 125°
2026-05-07 12:53 40.64717 -73.77183 15 ft 11 kts 117°
2026-05-07 12:53 40.64658 -73.77105 15 ft 12 kts 151°
2026-05-07 12:54 40.64571 -73.77085 15 ft 13 kts 179°
2026-05-07 12:54 40.64475 -73.77084 15 ft 14 kts 174°
2026-05-07 12:54 40.64409 -73.76998 15 ft 14 kts 115°
2026-05-07 12:54 40.64334 -73.76922 15 ft 14 kts 163°
2026-05-07 12:55 40.64236 -73.76893 15 ft 14 kts 185°
2026-05-07 12:55 40.64134 -73.76897 15 ft 14 kts 181°
2026-05-07 12:55 40.64029 -73.76907 15 ft 15 kts 185°
2026-05-07 12:55 40.63920 -73.76910 15 ft 16 kts 180°
2026-05-07 12:56 40.63806 -73.76913 15 ft 16 kts 181°
2026-05-07 12:56 40.63691 -73.76914 15 ft 12 kts 180°
2026-05-07 12:56 40.63601 -73.76917 15 ft 13 kts 181°
2026-05-07 12:56 40.63493 -73.76923 15 ft 16 kts 183°
2026-05-07 12:57 40.63370 -73.76934 12 ft 19 kts 184°
2026-05-07 12:57 40.63232 -73.76945 11 ft 20 kts 183°
2026-05-07 12:57 40.63094 -73.76977 11 ft 20 kts 200°
2026-05-07 12:57 40.62971 -73.77066 11 ft 20 kts 211°
2026-05-07 12:58 40.62855 -73.77161 11 ft 17 kts 214°
2026-05-07 12:58 40.62838 -73.77258 11 ft 9 kts 295°
2026-05-07 12:58 40.62892 -73.77377 11 ft 38 kts 298°
2026-05-07 12:58 40.63160 -73.77979 12 ft 113 kts 301°
2026-05-07 12:59 40.63666 -73.79105 38 ft 170 kts 300°
2026-05-07 12:59 40.64263 -73.80564 534 ft 185 kts 295°
2026-05-07 12:59 40.64498 -73.82158 1559 ft 180 kts 276°
2026-05-07 12:59 40.64508 -73.83738 2440 ft 178 kts 275°
2026-05-07 13:00 40.64354 -73.85426 2817 ft 198 kts 253°
2026-05-07 13:00 40.63490 -73.86951 3140 ft 221 kts 230°
2026-05-07 13:00 40.62290 -73.88374 3398 ft 244 kts 224°
2026-05-07 13:00 40.60744 -73.89496 3733 ft 270 kts 195°
2026-05-07 13:01 40.58835 -73.89455 4339 ft 283 kts 171°
2026-05-07 13:01 40.56949 -73.88876 5173 ft 281 kts 171°
2026-05-07 13:01 40.55051 -73.88222 6002 ft 281 kts 168°
2026-05-07 13:01 40.53215 -73.87382 6807 ft 282 kts 166°
2026-05-07 13:02 40.51390 -73.86461 7544 ft 283 kts 166°
2026-05-07 13:02 40.49566 -73.85497 8248 ft 287 kts 160°
2026-05-07 13:02 40.48013 -73.83763 8865 ft 309 kts 130°
2026-05-07 13:02 40.47131 -73.81130 9522 ft 320 kts 114°
2026-05-07 13:03 40.46483 -73.78336 10106 ft 325 kts 112°
2026-05-07 13:03 40.45832 -73.75454 10512 ft 336 kts 112°
2026-05-07 13:03 40.45129 -73.72482 10782 ft 350 kts 113°
2026-05-07 13:03 40.44373 -73.69401 11042 ft 365 kts 113°
2026-05-07 13:04 40.43566 -73.66176 11312 ft 378 kts 114°
2026-05-07 13:04 40.42730 -73.62874 11713 ft 387 kts 114°
2026-05-07 13:04 40.41869 -73.59487 12234 ft 391 kts 114°
2026-05-07 13:04 40.41010 -73.56119 12758 ft 395 kts 114°
2026-05-07 13:05 40.40134 -73.52689 13254 ft 399 kts 114°
2026-05-07 13:05 40.39243 -73.49208 13768 ft 403 kts 114°
2026-05-07 13:05 40.38349 -73.45721 14252 ft 407 kts 115°
2026-05-07 13:05 40.37450 -73.42224 14728 ft 411 kts 115°
2026-05-07 13:06 40.36539 -73.38689 15207 ft 414 kts 115°
2026-05-07 13:06 40.35608 -73.35088 15630 ft 419 kts 115°
2026-05-07 13:06 40.34672 -73.31467 16055 ft 423 kts 116°
2026-05-07 13:06 40.33718 -73.27840 16467 ft 425 kts 118°
2026-05-07 13:07 40.32545 -73.24281 16894 ft 422 kts 124°
2026-05-07 13:07 40.31121 -73.20959 17273 ft 419 kts 131°
2026-05-07 13:07 40.29538 -73.17757 17674 ft 420 kts 133°
2026-05-07 13:07 40.27925 -73.14603 18074 ft 423 kts 133°
2026-05-07 13:08 40.26292 -73.11388 18460 ft 427 kts 133°
2026-05-07 13:08 40.24642 -73.08106 18836 ft 430 kts 133°
2026-05-07 13:08 40.23014 -73.04854 19170 ft 433 kts 133°
2026-05-07 13:08 40.21371 -73.01569 19549 ft 436 kts 133°
2026-05-07 13:09 40.19710 -72.98250 19866 ft 440 kts 133°
2026-05-07 13:09 40.18018 -72.94872 20243 ft 442 kts 133°
2026-05-07 13:09 40.16332 -72.91514 20574 ft 445 kts 133°
2026-05-07 13:09 40.14638 -72.88145 20831 ft 450 kts 133°
2026-05-07 13:10 40.12911 -72.84712 21142 ft 453 kts 133°
2026-05-07 13:10 40.11188 -72.81285 21476 ft 456 kts 133°
2026-05-07 13:10 40.09496 -72.77753 21802 ft 461 kts 130°
2026-05-07 13:10 40.07855 -72.74150 22114 ft 465 kts 130°
2026-05-07 13:11 40.06204 -72.70484 22428 ft 467 kts 130°
2026-05-07 13:11 40.04562 -72.66840 22703 ft 471 kts 130°
2026-05-07 13:11 40.02910 -72.63175 23033 ft 472 kts 130°
2026-05-07 13:11 40.01250 -72.59506 23336 ft 474 kts 130°
2026-05-07 13:12 39.99567 -72.55804 23569 ft 478 kts 130°
2026-05-07 13:12 39.97860 -72.52055 23806 ft 481 kts 130°
2026-05-07 13:12 39.96170 -72.48324 24097 ft 483 kts 129°
2026-05-07 13:12 39.94488 -72.44506 24508 ft 482 kts 129°
2026-05-07 13:13 39.92856 -72.40765 24880 ft 482 kts 129°
2026-05-07 13:13 39.91188 -72.36958 25148 ft 484 kts 129°
2026-05-07 13:13 39.89501 -72.33126 25351 ft 488 kts 130°
2026-05-07 13:13 39.87811 -72.29296 25574 ft 491 kts 130°
2026-05-07 13:14 39.86129 -72.25481 25842 ft 492 kts 130°
2026-05-07 13:14 39.84418 -72.21613 26084 ft 494 kts 129°
2026-05-07 13:14 39.82699 -72.17725 26289 ft 497 kts 130°
2026-05-07 13:14 39.80983 -72.13847 26547 ft 499 kts 130°
2026-05-07 13:15 39.79256 -72.09954 26787 ft 500 kts 130°
2026-05-07 13:15 39.77517 -72.06049 26992 ft 503 kts 130°
2026-05-07 13:15 39.75714 -72.02158 27181 ft 500 kts 134°
2026-05-07 13:15 39.73678 -71.98586 27385 ft 492 kts 141°
2026-05-07 13:16 39.71365 -71.95348 27546 ft 484 kts 148°
2026-05-07 13:16 39.68904 -71.92357 27770 ft 483 kts 150°
2026-05-07 13:16 39.66418 -71.89441 27980 ft 484 kts 150°
2026-05-07 13:16 39.63942 -71.86538 28149 ft 488 kts 150°
2026-05-07 13:17 39.61439 -71.83575 28390 ft 489 kts 149°
2026-05-07 13:17 39.58946 -71.80598 28667 ft 489 kts 149°
2026-05-07 13:17 39.56421 -71.77580 28858 ft 492 kts 149°
2026-05-07 13:17 39.53893 -71.74629 28994 ft 490 kts 153°
2026-05-07 13:18 39.51205 -71.72051 29163 ft 479 kts 160°
2026-05-07 13:18 39.48341 -71.69929 29371 ft 467 kts 167°
2026-05-07 13:18 39.45406 -71.68306 29597 ft 455 kts 174°
2026-05-07 13:18 39.42424 -71.66957 29842 ft 452 kts 175°
2026-05-07 13:19 39.39461 -71.65665 30138 ft 451 kts 175°
2026-05-07 13:19 39.36486 -71.64366 30398 ft 452 kts 175°
2026-05-07 13:19 39.33539 -71.63065 30631 ft 453 kts 175°
2026-05-07 13:19 39.30554 -71.61734 30903 ft 453 kts 175°
2026-05-07 13:20 39.27571 -71.60398 31155 ft 453 kts 175°
2026-05-07 13:20 39.24617 -71.59177 31423 ft 446 kts 178°
2026-05-07 13:20 39.21638 -71.58172 31690 ft 439 kts 182°
2026-05-07 13:20 39.18672 -71.57403 31846 ft 435 kts 185°
2026-05-07 13:21 39.15707 -71.56863 32072 ft 429 kts 188°
2026-05-07 13:21 39.12752 -71.56533 32307 ft 422 kts 191°
2026-05-07 13:21 39.09812 -71.56355 32559 ft 421 kts 192°
2026-05-07 13:21 39.06918 -71.56181 32797 ft 421 kts 192°
2026-05-07 13:22 39.04010 -71.56004 33084 ft 419 kts 192°
2026-05-07 13:22 39.01078 -71.55826 33285 ft 420 kts 192°
2026-05-07 13:22 38.98182 -71.55655 33446 ft 422 kts 192°
2026-05-07 13:22 38.95233 -71.55476 33750 ft 421 kts 192°
2026-05-07 13:23 38.92330 -71.55298 34029 ft 421 kts 192°
2026-05-07 13:23 38.89404 -71.55121 34292 ft 420 kts 192°
2026-05-07 13:23 38.86486 -71.54944 34506 ft 421 kts 192°
2026-05-07 13:23 38.83532 -71.54768 34682 ft 423 kts 192°
2026-05-07 13:24 38.80623 -71.54592 34886 ft 423 kts 192°
2026-05-07 13:24 38.77659 -71.54411 35115 ft 423 kts 192°
2026-05-07 13:24 38.74731 -71.54232 35331 ft 424 kts 192°
2026-05-07 13:24 38.71800 -71.54056 35451 ft 426 kts 192°
2026-05-07 13:25 38.68849 -71.53879 35582 ft 427 kts 192°
2026-05-07 13:25 38.65847 -71.53699 35735 ft 428 kts 192°
2026-05-07 13:25 38.62889 -71.53520 35888 ft 429 kts 192°
2026-05-07 13:25 38.59922 -71.53342 35890 ft 430 kts 192°
2026-05-07 13:26 38.54032 -71.53399 35895 ft 417 kts 198°
2026-05-07 13:26 38.48303 -71.54157 35897 ft 412 kts 201°
2026-05-07 13:27 38.42625 -71.55026 35900 ft 411 kts 201°
2026-05-07 13:27 38.36942 -71.55890 35896 ft 413 kts 201°
2026-05-07 13:28 38.31262 -71.56754 35899 ft 411 kts 200°
2026-05-07 13:28 38.25601 -71.57612 35899 ft 411 kts 201°
2026-05-07 13:29 38.19925 -71.58475 35897 ft 411 kts 201°
2026-05-07 13:29 38.14185 -71.59352 35904 ft 414 kts 201°
2026-05-07 13:30 38.08477 -71.60216 35903 ft 416 kts 201°
2026-05-07 13:30 38.02776 -71.61077 35901 ft 414 kts 201°
2026-05-07 13:31 37.97016 -71.61948 35909 ft 416 kts 201°
2026-05-07 13:31 37.91301 -71.62810 35905 ft 414 kts 201°
2026-05-07 13:32 37.85543 -71.63680 35904 ft 416 kts 200°
2026-05-07 13:32 37.79770 -71.64555 35914 ft 418 kts 200°
2026-05-07 13:33 37.74028 -71.65409 35909 ft 417 kts 200°
2026-05-07 13:33 37.68223 -71.66284 35907 ft 423 kts 201°
2026-05-07 13:34 37.59420 -71.67602 35900 ft 423 kts 199°
2026-05-07 13:35 37.53568 -71.68467 35902 ft 425 kts 200°
2026-05-07 13:35 37.47718 -71.69344 35911 ft 426 kts 199°
2026-05-07 13:36 37.41848 -71.70104 35902 ft 427 kts 196°
2026-05-07 13:36 37.35794 -71.70192 35905 ft 443 kts 189°
2026-05-07 13:37 37.29630 -71.69603 35911 ft 445 kts 187°
2026-05-07 13:37 37.23435 -71.68954 35913 ft 450 kts 187°
2026-05-07 13:38 37.17215 -71.68301 35915 ft 452 kts 187°
2026-05-07 13:38 37.10941 -71.67651 35920 ft 453 kts 187°
2026-05-07 13:39 37.04671 -71.67001 35912 ft 454 kts 186°
2026-05-07 13:39 36.98403 -71.66351 35913 ft 454 kts 187°
2026-05-07 13:40 36.92103 -71.65701 35918 ft 451 kts 187°
2026-05-07 13:40 36.85841 -71.65059 35921 ft 455 kts 187°
2026-05-07 13:41 36.79550 -71.64411 35921 ft 456 kts 186°
2026-05-07 13:41 36.73198 -71.63759 35925 ft 458 kts 186°
2026-05-07 13:42 36.66855 -71.63107 35931 ft 459 kts 186°
2026-05-07 13:42 36.60543 -71.62459 35929 ft 457 kts 186°
2026-05-07 13:43 36.54200 -71.61814 35943 ft 459 kts 185°
2026-05-07 13:43 36.47863 -71.61163 35934 ft 459 kts 186°
2026-05-07 13:44 36.41461 -71.60514 35940 ft 459 kts 186°
2026-05-07 13:44 36.35143 -71.59867 35943 ft 459 kts 186°
2026-05-07 13:45 36.28746 -71.59216 35943 ft 459 kts 185°
2026-05-07 13:45 36.22432 -71.58574 35942 ft 460 kts 185°
2026-05-07 13:46 36.16045 -71.57928 35951 ft 459 kts 185°
2026-05-07 13:46 36.09661 -71.57285 35956 ft 462 kts 185°
2026-05-07 13:47 36.03285 -71.56642 35953 ft 462 kts 185°
2026-05-07 13:47 35.96844 -71.55995 35951 ft 464 kts 185°
2026-05-07 13:48 35.90423 -71.55346 35953 ft 463 kts 185°
2026-05-07 13:48 35.84005 -71.54703 35959 ft 465 kts 185°
2026-05-07 13:49 35.77569 -71.54058 35960 ft 464 kts 185°
2026-05-07 13:49 35.71134 -71.53413 35961 ft 464 kts 184°
2026-05-07 13:50 35.64670 -71.52695 35968 ft 473 kts 181°
2026-05-07 13:50 35.58158 -71.51262 35973 ft 476 kts 176°
2026-05-07 13:51 35.51669 -71.49580 35975 ft 479 kts 176°
2026-05-07 13:51 35.45202 -71.47910 35981 ft 478 kts 176°
2026-05-07 13:52 35.38645 -71.46233 35986 ft 481 kts 176°
2026-05-07 13:52 35.32133 -71.44566 35868 ft 475 kts 176°
2026-05-07 13:52 35.28909 -71.43743 35375 ft 472 kts 176°
2026-05-07 13:53 35.25699 -71.42926 35012 ft 472 kts 176°
2026-05-07 13:53 35.19230 -71.41290 35000 ft 476 kts 175°
2026-05-07 13:54 35.12734 -71.39635 34994 ft 479 kts 175°
2026-05-07 13:54 35.06211 -71.37981 35001 ft 478 kts 175°
2026-05-07 13:55 34.99675 -71.36325 34997 ft 481 kts 175°
2026-05-07 13:55 34.93119 -71.34663 34999 ft 481 kts 176°
2026-05-07 13:56 34.86608 -71.33019 34995 ft 478 kts 175°
2026-05-07 13:56 34.80080 -71.31372 35004 ft 479 kts 175°
2026-05-07 13:57 34.73584 -71.29737 35000 ft 479 kts 176°
2026-05-07 13:57 34.67032 -71.28093 34997 ft 480 kts 175°
2026-05-07 13:58 34.60493 -71.26454 35007 ft 482 kts 176°
2026-05-07 13:58 34.53906 -71.24804 35019 ft 482 kts 175°
2026-05-07 13:59 34.47403 -71.23178 35014 ft 481 kts 175°
2026-05-07 13:59 34.40802 -71.21536 35032 ft 483 kts 175°
2026-05-07 14:00 34.34255 -71.19899 35029 ft 482 kts 175°
2026-05-07 14:00 34.27678 -71.18263 35039 ft 484 kts 175°
2026-05-07 14:01 34.21090 -71.16627 35029 ft 483 kts 175°
2026-05-07 14:01 34.14530 -71.14999 35037 ft 482 kts 175°
2026-05-07 14:02 34.07970 -71.13379 35040 ft 484 kts 175°
2026-05-07 14:02 34.01359 -71.11743 35046 ft 484 kts 175°
2026-05-07 14:03 33.94800 -71.10124 35051 ft 485 kts 175°
2026-05-07 14:03 33.88195 -71.08497 35055 ft 486 kts 175°
2026-05-07 14:04 33.81541 -71.06860 35061 ft 486 kts 175°
2026-05-07 14:04 33.74976 -71.05239 35062 ft 483 kts 175°
2026-05-07 14:05 33.68365 -71.03626 35065 ft 484 kts 175°
2026-05-07 14:05 33.61774 -71.02011 35066 ft 484 kts 175°
2026-05-07 14:06 33.55139 -71.00391 35071 ft 485 kts 175°
2026-05-07 14:06 33.48560 -70.98782 35075 ft 486 kts 175°
2026-05-07 14:07 33.41917 -70.97165 35082 ft 485 kts 175°
2026-05-07 14:07 33.35292 -70.95551 35075 ft 486 kts 175°
2026-05-07 14:08 33.28666 -70.93944 35086 ft 486 kts 175°
2026-05-07 14:08 33.22069 -70.92343 35081 ft 486 kts 174°
2026-05-07 14:09 33.15425 -70.90736 35092 ft 487 kts 175°
2026-05-07 14:09 33.08788 -70.89128 35090 ft 486 kts 174°
2026-05-07 14:10 33.02141 -70.87525 35096 ft 488 kts 174°
2026-05-07 14:10 32.95504 -70.85922 35095 ft 486 kts 174°
2026-05-07 14:11 32.88878 -70.84328 35095 ft 487 kts 174°
2026-05-07 14:11 32.82248 -70.82736 35100 ft 488 kts 175°
2026-05-07 14:12 32.75602 -70.81142 35096 ft 488 kts 174°
2026-05-07 14:12 32.68949 -70.79547 35093 ft 487 kts 174°
2026-05-07 14:13 32.62296 -70.77954 35094 ft 488 kts 174°
2026-05-07 14:13 32.55645 -70.76364 35099 ft 488 kts 174°
2026-05-07 14:14 32.49009 -70.74780 35096 ft 487 kts 174°
2026-05-07 14:14 32.42384 -70.73202 35101 ft 486 kts 174°
2026-05-07 14:15 32.35698 -70.71614 35100 ft 487 kts 174°
2026-05-07 14:15 32.29079 -70.70043 35103 ft 488 kts 174°
2026-05-07 14:16 32.22430 -70.68465 35099 ft 487 kts 174°
2026-05-07 14:16 32.15793 -70.66895 35100 ft 487 kts 174°
2026-05-07 14:17 32.09127 -70.65319 35101 ft 488 kts 174°
2026-05-07 14:17 32.02465 -70.63745 35103 ft 488 kts 174°
2026-05-07 14:18 31.95818 -70.62181 35100 ft 489 kts 174°
2026-05-07 14:18 31.89142 -70.60609 35109 ft 490 kts 174°
2026-05-07 14:19 31.82442 -70.59036 35100 ft 490 kts 174°
2026-05-07 14:19 31.75789 -70.57471 35108 ft 491 kts 174°
2026-05-07 14:20 31.69102 -70.55907 35111 ft 490 kts 174°
2026-05-07 14:20 31.62377 -70.54332 35109 ft 492 kts 173°
2026-05-07 14:21 31.55691 -70.52769 35108 ft 491 kts 173°
2026-05-07 14:21 31.49011 -70.51211 35107 ft 492 kts 173°
2026-05-07 14:22 31.42264 -70.49641 35132 ft 495 kts 173°
2026-05-07 14:22 31.38915 -70.48862 35323 ft 495 kts 173°
2026-05-07 14:22 31.35528 -70.48074 35638 ft 493 kts 173°
2026-05-07 14:22 31.32167 -70.47291 35932 ft 491 kts 173°
2026-05-07 14:23 31.28839 -70.46516 36132 ft 492 kts 174°
2026-05-07 14:23 31.25448 -70.45732 36275 ft 493 kts 174°
2026-05-07 14:23 31.22114 -70.44960 36419 ft 494 kts 174°
2026-05-07 14:23 31.18720 -70.44175 36566 ft 495 kts 174°
2026-05-07 14:24 31.15359 -70.43396 36714 ft 495 kts 174°
2026-05-07 14:24 31.11954 -70.42607 36936 ft 494 kts 174°
2026-05-07 14:24 31.08604 -70.41833 37111 ft 494 kts 173°
2026-05-07 14:25 31.01824 -70.40268 37111 ft 496 kts 174°
2026-05-07 14:25 30.95055 -70.38709 37126 ft 497 kts 173°
2026-05-07 14:26 30.88286 -70.37151 37133 ft 497 kts 173°
2026-05-07 14:26 30.81539 -70.35599 37128 ft 497 kts 173°
2026-05-07 14:27 30.74762 -70.34042 37131 ft 496 kts 174°
2026-05-07 14:27 30.67978 -70.32487 37132 ft 496 kts 174°
2026-05-07 14:28 30.61181 -70.30933 37133 ft 496 kts 174°
2026-05-07 14:28 30.54426 -70.29387 37136 ft 494 kts 174°
2026-05-07 14:29 30.47669 -70.27846 37132 ft 496 kts 174°
2026-05-07 14:29 30.40917 -70.26308 37132 ft 496 kts 173°
2026-05-07 14:30 30.34140 -70.24763 37138 ft 497 kts 173°
2026-05-07 14:30 30.27350 -70.23221 37139 ft 497 kts 173°
2026-05-07 14:31 30.20597 -70.21692 37136 ft 497 kts 173°
2026-05-07 14:31 30.13810 -70.20150 37135 ft 496 kts 173°
2026-05-07 14:32 30.07042 -70.18618 37139 ft 496 kts 173°
2026-05-07 14:32 30.00245 -70.17084 37134 ft 496 kts 173°
2026-05-07 14:33 29.93501 -70.15562 37134 ft 496 kts 173°
2026-05-07 14:33 29.86704 -70.14030 37137 ft 495 kts 173°
2026-05-07 14:34 29.79981 -70.12517 37135 ft 495 kts 173°
2026-05-07 14:34 29.73201 -70.10992 37138 ft 495 kts 173°
2026-05-07 14:35 29.66437 -70.09474 37136 ft 495 kts 173°
2026-05-07 14:35 29.59700 -70.07965 37136 ft 495 kts 173°
2026-05-07 14:36 29.52897 -70.06442 37135 ft 495 kts 173°
2026-05-07 14:36 29.46144 -70.04933 37138 ft 494 kts 173°
2026-05-07 14:37 29.39432 -70.03435 37138 ft 493 kts 172°
2026-05-07 14:37 29.29327 -70.01184 37136 ft 495 kts 173°
2026-05-07 14:38 29.22526 -69.99670 37138 ft 494 kts 172°
2026-05-07 14:38 29.15841 -69.98184 37136 ft 491 kts 172°
2026-05-07 14:39 29.09099 -69.96688 37144 ft 492 kts 172°
2026-05-07 14:39 29.02417 -69.95209 37136 ft 491 kts 172°
2026-05-07 14:40 28.95680 -69.93717 37144 ft 491 kts 172°
2026-05-07 14:40 28.88969 -69.92236 37144 ft 492 kts 172°
2026-05-07 14:41 28.82253 -69.90751 37148 ft 492 kts 172°
2026-05-07 14:41 28.75514 -69.89267 37146 ft 492 kts 172°
2026-05-07 14:42 28.68804 -69.87791 37146 ft 492 kts 172°
2026-05-07 14:42 28.62065 -69.86308 37139 ft 492 kts 172°
2026-05-07 14:43 28.55370 -69.84840 37144 ft 492 kts 172°
2026-05-07 14:43 28.48625 -69.83361 37143 ft 493 kts 172°
2026-05-07 14:44 28.41903 -69.81888 37146 ft 492 kts 171°
2026-05-07 14:44 28.35162 -69.80414 37146 ft 493 kts 171°
2026-05-07 14:45 28.28423 -69.78943 37142 ft 493 kts 171°
2026-05-07 14:45 28.21674 -69.77470 37143 ft 494 kts 171°
2026-05-07 14:46 28.14929 -69.76000 37142 ft 494 kts 171°
2026-05-07 14:46 28.08180 -69.74532 37144 ft 493 kts 171°
2026-05-07 14:47 28.01460 -69.73071 37143 ft 493 kts 171°
2026-05-07 14:47 27.94741 -69.71611 37145 ft 493 kts 171°
2026-05-07 14:48 27.87989 -69.70149 37141 ft 494 kts 171°
2026-05-07 14:48 27.81227 -69.68684 37145 ft 494 kts 171°
2026-05-07 14:49 27.74485 -69.67228 37145 ft 494 kts 171°
2026-05-07 14:49 27.67752 -69.65775 37143 ft 494 kts 171°
2026-05-07 14:50 27.60958 -69.64311 37145 ft 495 kts 171°
2026-05-07 14:50 27.54223 -69.62859 37146 ft 495 kts 171°
2026-05-07 14:51 27.47448 -69.61403 37148 ft 495 kts 171°
2026-05-07 14:51 27.40664 -69.59943 37145 ft 496 kts 171°
2026-05-07 14:52 27.33902 -69.58495 37142 ft 496 kts 170°
2026-05-07 14:52 27.27116 -69.57040 37142 ft 497 kts 170°
2026-05-07 14:53 27.20331 -69.55587 37141 ft 496 kts 170°
2026-05-07 14:53 27.13533 -69.54134 37142 ft 496 kts 170°
2026-05-07 14:54 27.06735 -69.52683 37142 ft 497 kts 170°
2026-05-07 14:54 26.99956 -69.51237 37141 ft 497 kts 170°
2026-05-07 14:55 26.93172 -69.49795 37142 ft 498 kts 170°
2026-05-07 14:55 26.86365 -69.48346 37140 ft 498 kts 170°
2026-05-07 14:56 26.79535 -69.46893 37141 ft 497 kts 170°
2026-05-07 14:56 26.72759 -69.45453 37139 ft 497 kts 170°
2026-05-07 14:57 26.65978 -69.44019 37140 ft 497 kts 170°
2026-05-07 14:57 26.59188 -69.42581 37138 ft 497 kts 170°
2026-05-07 14:58 26.52387 -69.41145 37138 ft 497 kts 169°
2026-05-07 14:58 26.45569 -69.39705 37138 ft 497 kts 169°
2026-05-07 14:59 26.38786 -69.38271 37140 ft 497 kts 170°
2026-05-07 14:59 26.31995 -69.36842 37137 ft 497 kts 169°
2026-05-07 15:00 26.25161 -69.35405 37140 ft 497 kts 169°
2026-05-07 15:00 26.18365 -69.33976 37137 ft 498 kts 170°
2026-05-07 15:01 26.11576 -69.32553 37137 ft 496 kts 170°
2026-05-07 15:01 26.04796 -69.31130 37137 ft 494 kts 170°
2026-05-07 15:02 25.98019 -69.29713 37138 ft 495 kts 170°
2026-05-07 15:02 25.91271 -69.28298 37138 ft 495 kts 170°
2026-05-07 15:03 25.84490 -69.26883 37130 ft 495 kts 170°
2026-05-07 15:03 25.77713 -69.25468 37131 ft 495 kts 170°
2026-05-07 15:04 25.70957 -69.24058 37131 ft 495 kts 170°
2026-05-07 15:04 25.64175 -69.22648 37131 ft 496 kts 170°
2026-05-07 15:05 25.57360 -69.21236 37134 ft 496 kts 170°
2026-05-07 15:05 25.50609 -69.19831 37131 ft 497 kts 170°
2026-05-07 15:06 25.43811 -69.18420 37128 ft 498 kts 170°
2026-05-07 15:06 25.36986 -69.17006 37129 ft 497 kts 170°
2026-05-07 15:07 25.30204 -69.15604 37123 ft 498 kts 170°
2026-05-07 15:07 25.23402 -69.14196 37123 ft 497 kts 170°
2026-05-07 15:08 25.16561 -69.12784 37112 ft 498 kts 169°
2026-05-07 15:08 25.09772 -69.11381 37103 ft 499 kts 169°
2026-05-07 15:09 25.02940 -69.09975 37099 ft 499 kts 169°
2026-05-07 15:09 24.96113 -69.08482 37101 ft 501 kts 167°
2026-05-07 15:10 24.89329 -69.06786 37100 ft 499 kts 167°
2026-05-07 15:10 24.82560 -69.05105 37101 ft 498 kts 167°
2026-05-07 15:11 24.75777 -69.03436 37101 ft 497 kts 168°
2026-05-07 15:11 24.69007 -69.01784 37100 ft 498 kts 167°
2026-05-07 15:12 24.62245 -69.00133 37101 ft 499 kts 167°
2026-05-07 15:12 24.55507 -68.98486 37100 ft 497 kts 167°
2026-05-07 15:13 24.48721 -68.96835 37100 ft 497 kts 167°
2026-05-07 15:13 24.41949 -68.95185 37100 ft 498 kts 167°
2026-05-07 15:14 24.35189 -68.93534 37101 ft 498 kts 167°
2026-05-07 15:14 24.28461 -68.91872 37100 ft 498 kts 167°
2026-05-07 15:15 24.21670 -68.90196 37099 ft 496 kts 167°
2026-05-07 15:15 24.14953 -68.88541 37100 ft 496 kts 167°
2026-05-07 15:16 24.08190 -68.86881 37099 ft 497 kts 167°
2026-05-07 15:16 24.01426 -68.85225 37101 ft 498 kts 167°
2026-05-07 15:17 23.94702 -68.83572 37100 ft 496 kts 167°
2026-05-07 15:17 23.87945 -68.81917 37098 ft 498 kts 166°
2026-05-07 15:18 23.81168 -68.80257 37100 ft 500 kts 166°
2026-05-07 15:18 23.74377 -68.78597 37100 ft 500 kts 166°
2026-05-07 15:19 23.67572 -68.76941 37101 ft 502 kts 167°
2026-05-07 15:19 23.60612 -68.76386 37099 ft 502 kts 184°
2026-05-07 15:20 23.53804 -68.77927 37102 ft 499 kts 202°
2026-05-07 15:20 23.47653 -68.81326 37104 ft 495 kts 214°
2026-05-07 15:21 23.41833 -68.85288 37101 ft 494 kts 215°
2026-05-07 15:21 23.35968 -68.89247 37100 ft 495 kts 215°
2026-05-07 15:22 23.30094 -68.93161 37101 ft 495 kts 214°
2026-05-07 15:22 23.24245 -68.97038 37099 ft 495 kts 214°
2026-05-07 15:23 23.18310 -69.00961 37100 ft 498 kts 214°
2026-05-07 15:23 23.12429 -69.04841 37101 ft 498 kts 214°
2026-05-07 15:24 23.06516 -69.08742 37099 ft 497 kts 214°
2026-05-07 15:24 23.00569 -69.12658 37097 ft 499 kts 214°
2026-05-07 15:25 22.94649 -69.16553 37101 ft 500 kts 214°
2026-05-07 15:25 22.88672 -69.20479 37096 ft 500 kts 214°
2026-05-07 15:26 22.82763 -69.24358 37099 ft 499 kts 214°
2026-05-07 15:26 22.76806 -69.28269 37098 ft 497 kts 214°
2026-05-07 15:27 22.70902 -69.32139 37098 ft 498 kts 214°
2026-05-07 15:27 22.64949 -69.36033 37098 ft 497 kts 214°
2026-05-07 15:28 22.59033 -69.39902 37098 ft 498 kts 214°
2026-05-07 15:28 22.53096 -69.43781 37097 ft 499 kts 214°
2026-05-07 15:29 22.47155 -69.47658 37095 ft 498 kts 214°
2026-05-07 15:29 22.41238 -69.51517 37095 ft 499 kts 214°
2026-05-07 15:30 22.35294 -69.55386 37094 ft 497 kts 214°
2026-05-07 15:30 22.29379 -69.59236 37093 ft 497 kts 214°
2026-05-07 15:31 22.23465 -69.63079 37091 ft 498 kts 214°
2026-05-07 15:31 22.17497 -69.66956 37090 ft 499 kts 214°
2026-05-07 15:32 22.11579 -69.70795 37089 ft 497 kts 214°
2026-05-07 15:32 22.05647 -69.74638 37084 ft 498 kts 214°
2026-05-07 15:33 21.99736 -69.78464 37085 ft 497 kts 214°
2026-05-07 15:33 21.93791 -69.82311 37084 ft 498 kts 214°
2026-05-07 15:34 21.87834 -69.86159 37084 ft 498 kts 214°
2026-05-07 15:34 21.81904 -69.89985 37083 ft 497 kts 214°
2026-05-07 15:35 21.75986 -69.93803 37080 ft 497 kts 214°
2026-05-07 15:35 21.70018 -69.97650 37081 ft 498 kts 214°
2026-05-07 15:36 21.64095 -70.01461 37080 ft 497 kts 214°
2026-05-07 15:36 21.58156 -70.05280 37079 ft 497 kts 214°
2026-05-07 15:37 21.52211 -70.09100 37078 ft 498 kts 214°
2026-05-07 15:37 21.46281 -70.12905 37080 ft 499 kts 214°
2026-05-07 15:38 21.40311 -70.16730 37079 ft 498 kts 214°
2026-05-07 15:38 21.34390 -70.20522 37079 ft 497 kts 214°
2026-05-07 15:39 21.28425 -70.24342 37078 ft 498 kts 214°
2026-05-07 15:39 21.22486 -70.28138 37037 ft 497 kts 214°
2026-05-07 15:40 21.19506 -70.30044 36530 ft 498 kts 214°
2026-05-07 15:40 21.16530 -70.31948 35598 ft 502 kts 213°
2026-05-07 15:40 21.13542 -70.33861 34573 ft 507 kts 213°
2026-05-07 15:40 21.10478 -70.35821 33525 ft 512 kts 212°
2026-05-07 15:41 21.07416 -70.37778 32517 ft 517 kts 212°
2026-05-07 15:41 21.04349 -70.39728 31639 ft 518 kts 212°
2026-05-07 15:41 21.01242 -70.41703 30887 ft 516 kts 212°
2026-05-07 15:41 20.98179 -70.43649 30158 ft 514 kts 212°
2026-05-07 15:42 20.95101 -70.45609 29367 ft 512 kts 212°
2026-05-07 15:42 20.92091 -70.47521 28762 ft 506 kts 212°
2026-05-07 15:42 20.89051 -70.49452 28251 ft 498 kts 212°
2026-05-07 15:42 20.86123 -70.51311 27739 ft 491 kts 212°
2026-05-07 15:43 20.83171 -70.53186 27128 ft 487 kts 212°
2026-05-07 15:43 20.80280 -70.55022 26497 ft 484 kts 212°
2026-05-07 15:43 20.77395 -70.56855 25866 ft 480 kts 212°
2026-05-07 15:43 20.74544 -70.58663 25235 ft 477 kts 212°
2026-05-07 15:44 20.71694 -70.60471 24624 ft 474 kts 212°
2026-05-07 15:44 20.68894 -70.62245 24010 ft 470 kts 213°
2026-05-07 15:44 20.66089 -70.64024 23400 ft 468 kts 212°
2026-05-07 15:44 20.63287 -70.65800 22806 ft 464 kts 212°
2026-05-07 15:45 20.60543 -70.67536 22231 ft 461 kts 212°
2026-05-07 15:45 20.57801 -70.69274 21675 ft 457 kts 212°
2026-05-07 15:45 20.55071 -70.71004 21167 ft 452 kts 212°
2026-05-07 15:45 20.52364 -70.72715 20671 ft 447 kts 212°
2026-05-07 15:46 20.47091 -70.76051 19715 ft 437 kts 212°
2026-05-07 15:46 20.44482 -70.77698 19235 ft 432 kts 212°
2026-05-07 15:46 20.41912 -70.79321 18763 ft 426 kts 211°
2026-05-07 15:47 20.39408 -70.80938 18284 ft 421 kts 212°
2026-05-07 15:47 20.36918 -70.82583 17796 ft 417 kts 212°
2026-05-07 15:47 20.34455 -70.84217 17304 ft 412 kts 212°
2026-05-07 15:47 20.32048 -70.85811 16835 ft 408 kts 212°
2026-05-07 15:48 20.29660 -70.87391 16351 ft 403 kts 212°
2026-05-07 15:48 20.27274 -70.88966 15858 ft 400 kts 212°
2026-05-07 15:48 20.24935 -70.90510 15378 ft 396 kts 212°
2026-05-07 15:48 20.22612 -70.92042 14853 ft 390 kts 212°
2026-05-07 15:49 20.20329 -70.93547 14348 ft 387 kts 213°
2026-05-07 15:49 20.18032 -70.95059 13875 ft 382 kts 213°
2026-05-07 15:49 20.15790 -70.96537 13407 ft 378 kts 213°
2026-05-07 15:49 20.13584 -70.97990 12935 ft 374 kts 213°
2026-05-07 15:50 20.11360 -70.99455 12422 ft 371 kts 213°
2026-05-07 15:50 20.09176 -71.00892 11897 ft 369 kts 213°
2026-05-07 15:50 20.07010 -71.02319 11384 ft 366 kts 213°
2026-05-07 15:50 20.04871 -71.03726 11022 ft 359 kts 213°
2026-05-07 15:51 20.02751 -71.05121 10703 ft 351 kts 212°
2026-05-07 15:51 20.00715 -71.06458 10499 ft 339 kts 212°
2026-05-07 15:51 19.98754 -71.07745 10369 ft 326 kts 212°
2026-05-07 15:51 19.96852 -71.08992 10195 ft 313 kts 212°
2026-05-07 15:52 19.95021 -71.10194 10110 ft 300 kts 212°
2026-05-07 15:52 19.93181 -71.11145 9917 ft 292 kts 193°
2026-05-07 15:52 19.91212 -71.11083 9828 ft 278 kts 165°
2026-05-07 15:52 19.89426 -71.10422 9839 ft 264 kts 158°
2026-05-07 15:53 19.87738 -71.09708 9829 ft 263 kts 158°
2026-05-07 15:53 19.86013 -71.09019 9689 ft 264 kts 160°
2026-05-07 15:53 19.84265 -71.08374 9399 ft 263 kts 161°
2026-05-07 15:53 19.82548 -71.07774 9065 ft 261 kts 161°
2026-05-07 15:54 19.80805 -71.07179 8743 ft 259 kts 161°
2026-05-07 15:54 19.79104 -71.06605 8447 ft 256 kts 161°
2026-05-07 15:54 19.77427 -71.06042 8135 ft 253 kts 161°
2026-05-07 15:54 19.75740 -71.05476 7945 ft 248 kts 161°
2026-05-07 15:55 19.74142 -71.04939 7981 ft 234 kts 161°
2026-05-07 15:55 19.72604 -71.04423 7975 ft 228 kts 161°
2026-05-07 15:55 19.71062 -71.03902 7930 ft 238 kts 161°
2026-05-07 15:55 19.69462 -71.03365 7624 ft 240 kts 161°
2026-05-07 15:56 19.67888 -71.02837 7335 ft 238 kts 161°
2026-05-07 15:56 19.66309 -71.02309 7040 ft 236 kts 161°
2026-05-07 15:56 19.64741 -71.01783 6752 ft 234 kts 161°
2026-05-07 15:56 19.63199 -71.01266 6447 ft 232 kts 161°
2026-05-07 15:57 19.61676 -71.00754 6149 ft 230 kts 161°
2026-05-07 15:57 19.60142 -71.00241 5868 ft 230 kts 161°
2026-05-07 15:57 19.58615 -70.99728 5585 ft 229 kts 161°
2026-05-07 15:57 19.57087 -70.99216 5326 ft 227 kts 161°
2026-05-07 15:58 19.55616 -70.98715 5115 ft 221 kts 158°
2026-05-07 15:58 19.54313 -70.97941 4981 ft 208 kts 139°
2026-05-07 15:58 19.53293 -70.96914 4992 ft 193 kts 133°
2026-05-07 15:58 19.52363 -70.95885 5018 ft 192 kts 133°
2026-05-07 15:59 19.51439 -70.94861 5032 ft 192 kts 133°
2026-05-07 15:59 19.50511 -70.93842 5034 ft 191 kts 133°
2026-05-07 15:59 19.49593 -70.92839 5016 ft 191 kts 133°
2026-05-07 15:59 19.48657 -70.91818 5013 ft 192 kts 130°
2026-05-07 16:00 19.47851 -70.90697 5033 ft 192 kts 123°
2026-05-07 16:00 19.47186 -70.89468 5069 ft 192 kts 113°
2026-05-07 16:00 19.46715 -70.88139 5077 ft 193 kts 106°
2026-05-07 16:00 19.46382 -70.86781 4876 ft 192 kts 103°
2026-05-07 16:01 19.46089 -70.85405 4666 ft 191 kts 102°
2026-05-07 16:01 19.45801 -70.84038 4452 ft 189 kts 102°
2026-05-07 16:01 19.45513 -70.82690 4207 ft 189 kts 103°
2026-05-07 16:01 19.45213 -70.81319 4068 ft 189 kts 103°
2026-05-07 16:02 19.44919 -70.79974 3947 ft 191 kts 103°
2026-05-07 16:02 19.44623 -70.78594 3582 ft 195 kts 102°
2026-05-07 16:02 19.44310 -70.77171 3178 ft 201 kts 103°
2026-05-07 16:02 19.43990 -70.75771 2925 ft 188 kts 103°
2026-05-07 16:03 19.43696 -70.74478 2674 ft 175 kts 103°
2026-05-07 16:03 19.43429 -70.73273 2483 ft 159 kts 102°
2026-05-07 16:03 19.43184 -70.72169 2318 ft 152 kts 101°
2026-05-07 16:03 19.42943 -70.71081 2158 ft 151 kts 101°
2026-05-07 16:04 19.42705 -70.69994 1997 ft 151 kts 103°
2026-05-07 16:04 19.42468 -70.68911 1829 ft 151 kts 104°
2026-05-07 16:04 19.42230 -70.67828 1653 ft 147 kts 101°
2026-05-07 16:04 19.42009 -70.66823 1460 ft 138 kts 103°
2026-05-07 16:05 19.41789 -70.65831 1296 ft 137 kts 102°
2026-05-07 16:05 19.41566 -70.64861 1152 ft 137 kts 101°
2026-05-07 16:05 19.41363 -70.63881 980 ft 136 kts 103°
2026-05-07 16:05 19.41143 -70.62909 824 ft 136 kts 103°
2026-05-07 16:06 19.40928 -70.61929 656 ft 135 kts 102°
2026-05-07 16:06 19.40731 -70.61002 611 ft 116 kts 101°
2026-05-07 16:06 19.40588 -70.60346 610 ft 66 kts 104°
2026-05-07 16:06 19.40521 -70.60046 609 ft 16 kts 104°
2026-05-07 16:07 19.40453 -70.59984 608 ft 14 kts 177°
2026-05-07 16:07 19.40351 -70.60006 606 ft 15 kts 203°
2026-05-07 16:07 19.40299 -70.60049 605 ft 5 kts 223°
2026-05-07 16:07 19.40269 -70.60084 604 ft 6 kts 229°
2026-05-07 16:08 19.40256 -70.60100 604 ft 0 kts 228°
2026-05-07 16:08 19.40252 -70.60104 604 ft 0 kts 228°